Date String (YYYY-MM-DD hh:mm:ss) UTC,Instrument flags,Ambient pressure (hPa),Sample flow (lpm),Bypass flow (lpm),Sample temperature (°C),Ambient temperature (°C),ASC tube jacket temperature (°C),LED temperature (°C),Box temperature (°C),Sample RH (%),Span deviation,Mass concentration (μg/m³),Mass concentration (μg/m³),Mass concentration (μg/m³)
DateTimeUTC,F1_M11,P_M11,Q1_M11,Q2_M11,T1_M11,T2_M11,T3_M11,T4_M11,T5_M11,U1_M11,ZSPAN_M11,X2_M11,X0_M11,X1_M11
2023-05-22 22:00:00,,0829.3,5.00,0.00,29.5,28.1,00.0,37.8,31.3,18.6,0003.6,0039.41,0057.30,0037.82
2023-05-22 22:01:00,,0829.3,5.00,0.00,29.6,28.3,00.0,37.8,31.3,18.1,0003.7,0039.87,0057.91,0038.29
2023-05-22 22:02:00,,0829.3,5.00,0.00,29.6,28.4,00.0,37.8,31.4,18.2,0003.7,0040.13,0057.51,0038.56
2023-05-22 22:03:00,,0829.3,4.99,0.00,29.6,27.5,00.0,37.8,31.3,19.0,0003.7,0040.25,0057.45,0038.66
2023-05-22 22:04:00,,0829.2,5.01,0.00,29.6,25.6,00.0,37.7,31.0,18.9,0003.7,0040.44,0057.97,0038.80
2023-05-22 22:05:00,,0829.1,5.01,0.00,29.5,25.0,00.0,37.6,30.9,18.3,0003.8,0040.72,0058.09,0039.05
2023-05-22 22:06:00,,0829.2,5.00,0.00,29.4,25.3,00.0,37.6,30.7,17.2,0003.7,0041.09,0058.14,0039.44
2023-05-22 22:07:00,,0829.2,4.99,0.00,29.3,25.6,00.0,37.6,30.7,17.8,0003.7,0041.51,0057.88,0039.85
2023-05-22 22:08:00,,0829.1,5.00,0.00,29.3,26.0,00.0,37.6,30.8,18.9,0003.6,0041.55,0056.73,0039.97
2023-05-22 22:09:00,,0829.2,5.01,0.00,29.3,26.4,00.0,37.6,30.9,19.3,0003.5,0041.46,0056.75,0039.89
2023-05-22 22:10:00,,0829.2,5.00,0.00,29.3,26.7,00.0,37.6,30.9,19.1,0003.5,0041.28,0056.48,0039.71
2023-05-22 22:11:00,,0829.2,4.99,0.00,29.3,27.0,00.0,37.6,31.0,20.1,0003.6,0041.02,0056.06,0039.46
2023-05-22 22:12:00,,0829.2,5.00,0.00,29.3,27.3,00.0,37.6,31.0,20.3,0003.5,0040.63,0054.60,0039.11
2023-05-22 22:13:00,,0829.2,5.01,0.00,29.3,27.5,00.0,37.7,31.1,21.1,0003.4,0040.22,0053.97,0038.72
2023-05-22 22:14:00,,0829.2,5.00,0.00,29.4,27.7,00.0,37.7,31.1,20.0,0003.4,0039.93,0053.88,0038.44
2023-05-22 22:15:00,,0829.1,5.00,0.00,29.4,27.9,00.0,37.7,31.1,19.9,0003.4,0039.68,0053.73,0038.22
2023-05-22 22:16:00,,0829.1,4.98,0.00,29.4,28.0,00.0,37.7,31.2,20.6,0003.3,0039.33,0054.10,0037.90
2023-05-22 22:17:00,,0829.1,5.01,0.00,29.5,28.1,00.0,37.7,31.2,20.2,0003.3,0038.79,0053.67,0037.39
2023-05-22 22:18:00,,0829.1,5.01,0.00,29.5,28.2,00.0,37.7,31.3,20.6,0003.3,0038.11,0053.55,0036.73
2023-05-22 22:19:00,,0829.1,5.00,0.00,29.5,28.3,00.0,37.8,31.3,20.1,0003.4,0037.59,0053.23,0036.17
2023-05-22 22:20:00,,0829.1,4.99,0.00,29.6,28.4,00.0,37.8,31.3,19.6,0003.4,0037.34,0052.44,0035.84
2023-05-22 22:21:00,,0829.1,5.00,0.00,29.6,27.7,00.0,37.8,31.3,20.3,0003.4,0037.14,0052.13,0035.62
2023-05-22 22:22:00,,0829.1,5.01,0.00,29.6,26.2,00.0,37.7,31.1,19.7,0003.4,0037.07,0052.05,0035.53
2023-05-22 22:23:00,,0829.1,5.00,0.00,29.5,26.0,00.0,37.6,31.0,19.4,0003.4,0037.17,0052.23,0035.61
2023-05-22 22:24:00,,0829.1,5.01,0.00,29.5,26.2,00.0,37.7,31.0,19.6,0003.4,0037.37,0053.12,0035.77
2023-05-22 22:25:00,,0829.1,5.00,0.00,29.4,26.5,00.0,37.7,31.0,19.5,0003.4,0037.51,0053.26,0035.89
2023-05-22 22:26:00,,0829.1,4.99,0.00,29.4,26.8,00.0,37.7,31.0,20.3,0003.4,0037.55,0052.66,0035.93
2023-05-22 22:27:00,,0829.1,4.99,0.00,29.4,27.1,00.0,37.7,31.0,19.9,0003.5,0037.57,0051.65,0035.98
2023-05-22 22:28:00,,0829.1,5.00,0.00,29.4,27.3,00.0,37.7,31.1,19.6,0003.5,0037.64,0051.54,0036.03
2023-05-22 22:29:00,,0829.1,5.01,0.00,29.4,27.6,00.0,37.7,31.1,20.0,0003.5,0037.73,0051.42,0036.08
2023-05-22 22:30:00,,0829.1,5.00,0.00,29.5,27.8,00.0,37.7,31.2,20.8,0003.5,0037.70,0050.99,0036.11
2023-05-22 22:31:00,,0829.2,4.99,0.00,29.5,27.9,00.0,37.8,31.2,21.6,0003.5,0037.60,0050.86,0036.02
2023-05-22 22:32:00,,0829.2,5.00,0.00,29.5,28.1,00.0,37.8,31.3,20.6,0003.5,0037.38,0050.60,0035.85
2023-05-22 22:33:00,,0829.2,5.00,0.00,29.6,28.2,00.0,37.8,31.3,19.9,0003.6,0037.19,0050.66,0035.66
2023-05-22 22:34:00,,0829.2,5.00,0.00,29.6,28.3,00.0,37.8,31.3,19.9,0003.5,0036.86,0050.46,0035.31
2023-05-22 22:35:00,,0829.2,4.98,0.00,29.6,28.1,00.0,37.8,31.3,20.1,0003.6,0036.50,0049.64,0034.98
2023-05-22 22:36:00,,0829.1,5.01,0.00,29.6,26.7,00.0,37.8,31.1,20.3,0003.6,0036.16,0049.27,0034.65
2023-05-22 22:37:00,,0829.1,5.00,0.00,29.5,25.9,00.0,37.7,31.0,19.8,0003.6,0035.96,0050.05,0034.42
2023-05-22 22:38:00,,0829.2,5.01,0.00,29.5,26.0,00.0,37.7,30.9,19.7,0003.5,0035.82,0049.98,0034.27
2023-05-22 22:39:00,,0829.1,5.01,0.00,29.4,26.3,00.0,37.7,30.9,19.8,0003.5,0035.71,0050.10,0034.12
2023-05-22 22:40:00,,0829.1,5.00,0.00,29.4,26.6,00.0,37.7,31.0,20.6,0003.6,0035.52,0049.54,0033.97
2023-05-22 22:41:00,,0829.1,5.00,0.00,29.4,26.9,00.0,37.7,31.0,20.8,0003.6,0035.33,0049.20,0033.79
2023-05-22 22:42:00,,0829.1,5.00,0.00,29.4,27.2,00.0,37.7,31.1,20.0,0003.5,0035.15,0049.66,0033.63
2023-05-22 22:43:00,,0829.1,5.00,0.00,29.4,27.4,00.0,37.7,31.1,19.9,0003.5,0035.16,0049.70,0033.62
2023-05-22 22:44:00,,0829.1,5.00,0.00,29.4,27.6,00.0,37.7,31.2,19.7,0003.5,0035.19,0049.39,0033.65
2023-05-22 22:45:00,,0829.1,4.98,0.00,29.5,27.8,00.0,37.8,31.2,20.1,0003.6,0035.18,0049.39,0033.65
2023-05-22 22:46:00,,0829.2,4.99,0.00,29.5,28.0,00.0,37.8,31.2,20.5,0003.6,0035.17,0049.51,0033.62
2023-05-22 22:47:00,,0829.1,5.01,0.00,29.5,28.1,00.0,37.8,31.3,20.4,0003.5,0035.18,0049.81,0033.62
2023-05-22 22:48:00,,0829.2,5.01,0.00,29.6,28.2,00.0,37.8,31.3,21.0,0003.5,0035.13,0049.61,0033.59
2023-05-22 22:49:00,,0829.2,4.99,0.00,29.6,28.3,00.0,37.8,31.4,20.8,0003.5,0035.03,0049.92,0033.49
2023-05-22 22:50:00,,0829.2,4.99,0.00,29.6,27.2,00.0,37.8,31.2,21.5,0003.5,0034.87,0049.56,0033.34
2023-05-22 22:51:00,,0829.2,5.00,0.00,29.5,25.9,00.0,37.7,31.0,20.6,0003.5,0034.81,0049.37,0033.25
2023-05-22 22:52:00,,0829.2,5.00,0.00,29.5,25.9,00.0,37.7,30.9,20.1,0003.4,0034.80,0049.44,0033.21
2023-05-22 22:53:00,,0829.1,5.02,0.00,29.4,26.1,00.0,37.7,30.9,20.2,0003.5,0034.83,0049.18,0033.23
2023-05-22 22:54:00,,0829.2,5.00,0.00,29.4,26.4,00.0,37.7,30.9,19.8,0003.6,0034.82,0048.89,0033.23
2023-05-22 22:55:00,,0829.2,5.00,0.00,29.4,26.7,00.0,37.7,31.0,20.8,0003.6,0034.87,0049.58,0033.25
2023-05-22 22:56:00,,0829.2,4.99,0.00,29.4,27.0,00.0,37.7,31.0,20.1,0003.5,0034.91,0050.08,0033.28
2023-05-22 22:57:00,,0829.3,5.00,0.00,29.4,27.3,00.0,37.7,31.1,20.2,0003.6,0034.94,0050.07,0033.31
2023-05-22 22:58:00,,0829.2,5.00,0.00,29.4,27.5,00.0,37.7,31.1,20.3,0003.7,0034.91,0049.55,0033.32
2023-05-22 22:59:00,,0829.2,5.01,0.00,29.5,27.7,00.0,37.7,31.2,19.8,0003.7,0034.90,0048.22,0033.36
